weather.gov     
National Weather Service

Terminal Aerodrome Forecast
NWS Homepage
This page is being discontinued on March 12, 2014.
The same data is available at this site. Please update your bookmarks.
Thank you, and we apologize for the inconvenience.
Please send an email to SR-SRH.Webmaster@noaa.gov with any concerns.


Current Version
Previous Version:    01  02  03  04  05  06  07  08  09  10  11  12  13  14  15  16  17  18  19  20  21  22  23  24  25  26  27  28  29  30  
   31  32  33  34  35  36  37  
[Printable]
496
FTUS43 KMKX 301120
TAFMSN
TAF
KMSN 301120Z 3012/3112 00000KT P6SM SCT150
     FM301600 23005KT P6SM BKN110
     FM302100 29006KT P6SM BKN090
     FM310300 33006KT P6SM OVC025
     FM310500 33010KT P6SM BKN025
     FM310800 33014G26KT P6SM SCT025=




496
FTUS43 KMKX 301120
TAFMSN
TAF
KMSN 301120Z 3012/3112 00000KT P6SM SCT150
     FM301600 23005KT P6SM BKN110
     FM302100 29006KT P6SM BKN090
     FM310300 33006KT P6SM OVC025
     FM310500 33010KT P6SM BKN025
     FM310800 33014G26KT P6SM SCT025=


U.S. Dept. of Commerce
NOAA National Weather Service
1325 East West Highway
Silver Spring, MD 20910
E-mail: w-nws.webmaster@noaa.gov
Page last modified: May 16, 2007
NATIONAL WEATHER SERVICE: for Safety, for Work, for Fun - FOR LIFE